Погода в Брагине

Россия / Орловская область     53°19′51″N   36°19′20″E
темп.,
°C
ветер,
м/с
пор.,
м/с
влажн.,
%
обл.,
%
осадки,
мм/ч
давл.,
гПа
погр.,
м
28 сентября, вт
вт2800:00+7с41095100 0.0 1023402
03:00+7с5994100 0.1 1023437
06:00+8ссв4892100 0.3 1024503
09:00+7всв5888100 0.4 1026696
12:00+8св567396 0.0 10271007
15:00+7св5681100 0.1 1029940
18:00+7св4783100 0.0 1030620
21:00+6всв5878100 0.1 1032664
29 сентября, ср
ср2900:00+5всв3879100 0.0 1033405
03:00+2св36875 0.0 1034111
06:00+1ссв36885 0.0 1035105
09:00+5ссв46755 0.0 1035327
12:00+10св45545 0.0 10351009
15:00+11св344762 0.0 10341140
18:00+8св22625 0.0 103417
21:00+6св226867 0.0 103517
30 сентября, чт
чт3000:00+5всв2273100 0.0 103510
03:00+4ссв118053 0.0 103510
06:00+3ссв22865 0.0 103612
09:00+7св23725 0.0 1036225
12:00+11всв236027 0.0 1035973
15:00+11св2258100 0.0 10351076
18:00+9всв2370100 0.0 103568
21:00+9всв116599 0.0 103513
1 октября, пт
пт100:00+7в227412 0.0 103620
03:00+5юв11825 0.0 103610
06:00+5вюв11847 0.0 103610
09:00+8юв117121 0.0 1036174
12:00+12ю22585 0.0 1036878
15:00+13ююз22531 0.0 10351104
18:00+10юз11694 0.0 103410
21:00+8ю11751 0.0 103510
2 октября, сб
сб200:00+7ю22790 0.0 103510
03:00+6ю22815 0.0 103511
06:00+5ю22835 0.0 103514
09:00+9ю23685 0.0 1035197
12:00+13ю345319 0.0 1034819
15:00+14ю345098 0.0 10331093
18:00+10ю22679 0.0 103217
21:00+8ююв33755 0.0 103336